Weather History for Fort Benning, GA

Change the Weather History Date:

Saturday, March 2, 2013

  Actual Average Record
Temperature  
Mean Temperature 36 °F -  
Max Temperature 42 °F 64 °F 80 °F (1997)
Min Temperature 30 °F 40 °F 24 °F (2005)
Degree Days  
Heating Degree Days 29    
Moisture  
Dew Point 28 °F    
Average Humidity 68    
Maximum Humidity 87    
Minimum Humidity 57    
Precipitation  
Precipitation 0.00 in - - ()
Sea Level Pressure  
Sea Level Pressure 30.06 in    
Wind  
Wind Speed 7 mph (WNW)    
Max Wind Speed 17 mph    
Max Gust Speed 20 mph    
Visibility 10 miles    
Events Rain    
Averages and records for this station are not official NWS values.
T = Trace of Precipitation, MM = Missing Value Source: NWS Daily Summary

Daily Weather History Graph

Daily Weather History Graph

Search for Another Location

Airport:

Trip Planner

Search our weather history database for the weather conditions in past years. The results will help you decide how hot, cold, wet, or windy it might be!

Date:

Astronomy

Mar. 02, 2013 Rise Set
Actual Time 7:05 AM EST 6:38 PM EST
Civil Twilight 6:41 AM EST 7:03 PM EST
Nautical Twilight 6:12 AM EST 7:31 PM EST
Astronomical Twilight 5:44 AM EST 7:59 PM EST
Moon 11:55 PM EST (3/2) 9:53 AM EST (3/2)
Length of Visible Light 12h 21m
Length of Day
11h 32m
Waning Gibbous, 74% of the Moon is Illuminated
Mar 2
Waning Gibbous
Mar 4
Last Quarter
Mar 11
New
Mar 19
First Quarter
Mar 27
Full

Hourly Weather History & Observations

Time (EST) Temp. Windchill Dew Point Humidity Pressure Visibility Wind Dir Wind Speed Gust Speed Precip Events Conditions
12:58 AM 34.5 °F 31.6 °F 27.0 °F 74% 30.05 in 10.0 mi West 3.5 mph - N/A   Clear
1:58 AM 35.2 °F 31.2 °F 27.5 °F 73% 30.05 in 10.0 mi West 4.6 mph - N/A   Clear
2:58 AM 33.1 °F 28.7 °F 27.0 °F 78% 30.04 in 10.0 mi WNW 4.6 mph - N/A   Clear
3:58 AM 33.4 °F 27.3 °F 27.9 °F 80% 30.02 in 10.0 mi WNW 6.9 mph - N/A   Clear
4:58 AM 30.6 °F - 26.4 °F 85% 30.02 in 10.0 mi NNW 1.2 mph - N/A   Clear
6:59 AM - - - N/A% - - NE 1.2 mph - N/A   Unknown
7:15 AM 32.0 °F - 28.4 °F 87% 30.04 in 7.0 mi NE 1.2 mph - N/A   Overcast
7:39 AM - - - N/A% - - WNW 2.3 mph - N/A   Unknown
7:55 AM 32.0 °F - 28.4 °F 87% 30.04 in 7.0 mi WNW 2.3 mph - N/A   Overcast
10:58 AM 39.7 °F 33.7 °F 29.5 °F 67% 30.09 in 10.0 mi WNW 9.2 mph - N/A   Overcast
11:42 AM 39.2 °F 33.0 °F 28.4 °F 65% 30.07 in 10.0 mi WNW 9.2 mph - N/A   Light Drizzle
12:16 PM 39.2 °F 31.2 °F 30.2 °F 70% 30.07 in 10.0 mi WNW 13.8 mph 18.4 mph N/A   Overcast
12:58 PM 41.0 °F 34.7 °F 28.4 °F 61% 30.06 in 10.0 mi WNW 10.4 mph - N/A   Overcast
1:58 PM 41.0 °F 35.8 °F 28.4 °F 61% 30.04 in 10.0 mi West 8.1 mph - N/A   Overcast
2:56 PM 41.0 °F 34.7 °F 28.4 °F 61% 30.03 in 10.0 mi NW 10.4 mph - N/A   Overcast
3:56 PM 42.8 °F 34.8 °F 28.4 °F 57% 30.03 in 10.0 mi NW 17.3 mph 19.6 mph N/A   Overcast
4:58 PM 41.5 °F 36.4 °F 28.4 °F 60% 30.04 in 10.0 mi NW 8.1 mph - N/A   Overcast
5:08 PM 41.0 °F 34.7 °F 28.4 °F 61% 30.03 in 10.0 mi NW 10.4 mph - N/A   Overcast
5:20 PM 41.0 °F 33.9 °F 28.4 °F 61% 30.03 in 10.0 mi NW 12.7 mph - N/A Rain Light Rain
5:33 PM 41.0 °F 34.3 °F 28.4 °F 61% 30.03 in 10.0 mi NW 11.5 mph - N/A   Overcast
5:48 PM 41.0 °F 35.2 °F 28.4 °F 61% 30.04 in 10.0 mi WNW 9.2 mph - N/A   Overcast
5:58 PM 40.6 °F 33.0 °F 28.6 °F 62% 30.04 in 10.0 mi NW 13.8 mph - 0.00 in   Overcast
6:56 PM 39.2 °F 32.0 °F 28.4 °F 65% 30.06 in 10.0 mi WNW 11.5 mph - N/A   Overcast
8:58 PM 38.3 °F 31.9 °F 28.8 °F 69% 30.11 in 10.0 mi WNW 9.2 mph - N/A   Overcast
9:58 PM 38.5 °F 33.4 °F 27.5 °F 65% 30.11 in 10.0 mi WNW 6.9 mph - N/A   Overcast
10:18 PM 37.4 °F 32.1 °F 28.4 °F 70% 30.08 in 10.0 mi WNW 6.9 mph - N/A   Overcast
10:58 PM 37.4 °F 30.8 °F 27.1 °F 66% 30.11 in 10.0 mi WNW 9.2 mph - N/A   Overcast
11:08 PM 37.4 °F 32.8 °F 26.6 °F 65% 30.08 in 10.0 mi WNW 5.8 mph - N/A   Overcast
11:18 PM 37.4 °F 31.4 °F 26.6 °F 65% 30.08 in 10.0 mi WNW 8.1 mph - N/A   Overcast
11:58 PM 37.6 °F 31.0 °F 26.8 °F 65% 30.09 in 10.0 mi WNW 9.2 mph - N/A   Overcast